Weather reports worldwide

Advertisment
Banjarmasin/Syamsudin Noor, Indonesia (96685): temperature & dewpoint: 16.06.2018 05:00:00 - 22.06.2018 05:00:00 (WITA)Banjarmasin/Syamsudin Noor, Indonesia (96685): wind speed: 16.06.2018 05:00:00 - 22.06.2018 05:00:00 (WITA)Banjarmasin/Syamsudin Noor, Indonesia (96685): wind direction: 16.06.2018 05:00:00 - 22.06.2018 05:00:00 (WITA)Banjarmasin/Syamsudin Noor, Indonesia (96685): reduced air pressure: 16.06.2018 05:00:00 - 22.06.2018 05:00:00 (WITA)Banjarmasin/Syamsudin Noor, Indonesia (96685): visibility: 16.06.2018 05:00:00 - 22.06.2018 05:00:00 (WITA)
Date & Time tt [°C] td [°C] ff [km/h] ff [kn] dd ppp [hPa] vv [km]
22.06.2018 05:00:00 23,7 22,9 0 0 N 1010,6 8
22.06.2018 04:00:00 24,0 23,0 4 2 SE - 10
22.06.2018 03:00:00 24,0 23,0 2 1 NNW - 10
22.06.2018 02:00:00 25,0 23,6 5 3 E 1011,3 10
22.06.2018 01:00:00 25,0 23,0 4 2 - - 10
22.06.2018 00:00:00 25,0 24,0 8 4 SSE - 10
21.06.2018 23:00:00 26,5 23,9 5 3 E 1011,9 10
21.06.2018 22:00:00 27,0 24,0 8 4 E - 10
21.06.2018 21:00:00 27,0 24,0 9 5 E - 10
21.06.2018 20:00:00 27,1 23,7 0 0 N 1010,8 9
21.06.2018 19:00:00 27,0 23,0 4 2 ENE - 10
21.06.2018 18:00:00 27,0 23,0 8 4 WNW - 9
21.06.2018 17:00:00 29,0 23,5 15 8 WNW 1009,1 10
21.06.2018 16:00:00 31,0 24,0 9 5 SSW - 10
21.06.2018 15:00:00 32,0 23,0 5 3 SSW - 10
21.06.2018 14:00:00 32,6 23,3 8 4 E 1010,0 10
21.06.2018 13:00:00 - - - - - - -
21.06.2018 12:00:00 - - - - - - -
21.06.2018 11:00:00 30,0 24,6 0 0 N 1012,1 10
21.06.2018 10:00:00 - - - - - - -
21.06.2018 09:00:00 - - - - - - -
21.06.2018 08:00:00 24,4 23,4 9 5 NE 1012,5 10
21.06.2018 07:00:00 - - - - - - -
21.06.2018 06:00:00 - - - - - - -
21.06.2018 05:00:00 23,6 23,3 0 0 N 1011,7 7
21.06.2018 04:00:00 - - - - - - -
21.06.2018 03:00:00 - - - - - - -
21.06.2018 02:00:00 23,8 23,2 0 0 N 1012,2 7
21.06.2018 01:00:00 - - - - - - -
21.06.2018 00:00:00 - - - - - - -
20.06.2018 23:00:00 24,4 23,3 0 0 N 1013,8 8
20.06.2018 22:00:00 - - - - - - -
20.06.2018 21:00:00 - - - - - - -
20.06.2018 20:00:00 25,0 23,6 8 4 S 1013,3 9
20.06.2018 19:00:00 - - - - - - -
20.06.2018 18:00:00 - - - - - - -
20.06.2018 17:00:00 26,8 23,8 9 5 SW 1011,9 9
20.06.2018 16:00:00 - - - - - - -
20.06.2018 15:00:00 - - - - - - -
20.06.2018 14:00:00 25,0 23,3 11 6 ENE 1010,9 9
20.06.2018 13:00:00 - - - - - - -
20.06.2018 12:00:00 - - - - - - -
20.06.2018 11:00:00 - - - - - - -
20.06.2018 10:00:00 - - - - - - -
20.06.2018 09:00:00 - - - - - - -
20.06.2018 08:00:00 24,9 24,6 0 0 N 1012,9 1,5
20.06.2018 07:00:00 - - - - - - -
20.06.2018 06:00:00 - - - - - - -
20.06.2018 05:00:00 25,0 24,5 0 0 N 1010,8 1,5
20.06.2018 04:00:00 - - - - - - -
20.06.2018 03:00:00 - - - - - - -
20.06.2018 02:00:00 25,0 24,5 5 3 SE 1011,1 10
20.06.2018 01:00:00 - - - - - - -
20.06.2018 00:00:00 - - - - - - -
19.06.2018 23:00:00 25,6 24,2 15 8 N 1012,3 10
19.06.2018 22:00:00 - - - - - - -
19.06.2018 21:00:00 - - - - - - -
19.06.2018 20:00:00 25,8 24,7 8 4 SSW 1010,6 10
19.06.2018 19:00:00 - - - - - - -
19.06.2018 18:00:00 - - - - - - -
19.06.2018 17:00:00 24,9 23,8 13 7 WSW 1009,5 9
19.06.2018 16:00:00 - - - - - - -
19.06.2018 15:00:00 - - - - - - -
19.06.2018 14:00:00 33,8 23,9 0 0 N 1008,5 10
19.06.2018 13:00:00 - - - - - - -
19.06.2018 12:00:00 - - - - - - -
19.06.2018 11:00:00 32,4 24,3 11 6 NNE 1010,8 10
19.06.2018 10:00:00 - - - - - - -
19.06.2018 09:00:00 - - - - - - -
19.06.2018 08:00:00 26,2 24,1 8 4 ENE 1011,4 10
19.06.2018 07:00:00 - - - - - - -
19.06.2018 06:00:00 - - - - - - -
19.06.2018 05:00:00 24,8 23,7 0 0 N 1009,9 10
19.06.2018 04:00:00 - - - - - - -
19.06.2018 03:00:00 - - - - - - -
19.06.2018 02:00:00 - - - - - - -
19.06.2018 01:00:00 - - - - - - -
19.06.2018 00:00:00 - - - - - - -
18.06.2018 23:00:00 27,0 24,3 5 3 S 1009,9 10
18.06.2018 22:00:00 - - - - - - -
18.06.2018 21:00:00 - - - - - - -
18.06.2018 20:00:00 28,4 24,3 9 5 S 1008,6 10
18.06.2018 19:00:00 - - - - - - -
18.06.2018 18:00:00 - - - - - - -
18.06.2018 17:00:00 32,5 25,5 15 8 W 1007,4 10
18.06.2018 16:00:00 - - - - - - -
18.06.2018 15:00:00 - - - - - - -
18.06.2018 14:00:00 34,3 22,3 11 6 ENE 1006,9 10
18.06.2018 13:00:00 - - - - - - -
18.06.2018 12:00:00 - - - - - - -
18.06.2018 11:00:00 30,3 24,0 9 5 E 1009,4 10
18.06.2018 10:00:00 - - - - - - -
18.06.2018 09:00:00 - - - - - - -
18.06.2018 08:00:00 24,8 22,6 5 3 NE 1010,6 10
18.06.2018 07:00:00 - - - - - - -
18.06.2018 06:00:00 - - - - - - -
18.06.2018 05:00:00 23,9 23,8 0 0 N 1009,4 9
18.06.2018 04:00:00 - - - - - - -
18.06.2018 03:00:00 - - - - - - -
18.06.2018 02:00:00 26,4 24,8 9 5 E 1009,5 9
18.06.2018 01:00:00 - - - - - - -
18.06.2018 00:00:00 - - - - - - -
17.06.2018 23:00:00 26,8 24,1 0 0 N 1010,0 9
17.06.2018 22:00:00 - - - - - - -
17.06.2018 21:00:00 - - - - - - -
17.06.2018 20:00:00 28,8 25,4 8 4 E 1009,1 10
17.06.2018 19:00:00 - - - - - - -
17.06.2018 18:00:00 - - - - - - -
17.06.2018 17:00:00 32,0 25,3 11 6 WSW 1007,5 10
17.06.2018 16:00:00 - - - - - - -
17.06.2018 15:00:00 - - - - - - -
17.06.2018 14:00:00 33,5 22,4 15 8 E 1008,3 10
17.06.2018 13:00:00 - - - - - - -
17.06.2018 12:00:00 - - - - - - -
17.06.2018 11:00:00 31,6 23,7 15 8 ESE 1010,9 10
17.06.2018 10:00:00 - - - - - - -
17.06.2018 09:00:00 - - - - - - -
17.06.2018 08:00:00 24,8 23,4 13 7 N 1011,3 10
17.06.2018 07:00:00 - - - - - - -
17.06.2018 06:00:00 - - - - - - -
17.06.2018 05:00:00 23,5 23,1 0 0 N 1009,7 10
17.06.2018 04:00:00 - - - - - - -
17.06.2018 03:00:00 - - - - - - -
17.06.2018 02:00:00 24,2 23,6 0 0 N 1009,7 10
17.06.2018 01:00:00 - - - - - - -
17.06.2018 00:00:00 - - - - - - -
16.06.2018 23:00:00 24,8 24,0 5 3 ENE 1010,9 10
16.06.2018 22:00:00 - - - - - - -
16.06.2018 21:00:00 - - - - - - -
16.06.2018 20:00:00 25,3 23,8 11 6 E 1010,2 10
16.06.2018 19:00:00 - - - - - - -
16.06.2018 18:00:00 - - - - - - -
16.06.2018 17:00:00 26,0 23,2 16 9 NNW 1009,4 10
16.06.2018 16:00:00 - - - - - - -
16.06.2018 15:00:00 - - - - - - -
16.06.2018 14:00:00 32,0 24,4 9 5 SSW 1009,4 10
16.06.2018 13:00:00 - - - - - - -
16.06.2018 12:00:00 - - - - - - -
16.06.2018 11:00:00 30,8 25,3 5 3 ENE 1012,2 10
16.06.2018 10:00:00 - - - - - - -
16.06.2018 09:00:00 - - - - - - -
16.06.2018 08:00:00 26,4 24,5 5 3 N 1012,4 10
16.06.2018 07:00:00 - - - - - - -
16.06.2018 06:00:00 - - - - - - -
16.06.2018 05:00:00 25,0 24,0 4 2 WNW 1010,4 7

tt = temperature
td = dewpoint
ff = wind speed
dd = wind direction
ppp = reduced air pressure
vv = visibility

Next stations